Wind_Speed
24 21 20 22 23 21 16 17 16 11 4 5 4 8 7 14 16 17 19 13 19 13 14 14 13 13 13 14 14 13 13 13 12 12 12 12 13 11 13 13 9 9 10 10 12 13 13 17 19
24 22 20 21 23 20 18 16 16 13 9 8 5 5 7 12 15 20 15 19 17 15 16 12 13 15 15 12 14 12 13 13 13 13 12 10 12 11 13 13 10 9 10 11 13 16 14 15 14
27 20 14 21 17 16 17 16 16 13 8 5 9 11 5 5 15 14 20 17 21 15 15 15 14 12 13 13 13 14 13 14 13 14 12 9 11 11 12 11 11 9 9 10 12 15 13 11 11
28 26 24 21 24 19 17 16 16 14 8 4 10 12 12 6 7 14 20 25 19 17 19 19 17 13 12 12 14 12 12 12 15 14 11 9 9 11 11 9 9 9 9 10 10 12 11 9 10
30 29 29 26 25 23 20 16 19 18 13 7 13 16 16 11 7 21 16 14 20 24 22 16 14 14 12 11 13 11 13 11 14 13 10 8 7 9 10 11 9 6 8 10 10 9 9 10 11
30 29 32 30 28 26 21 19 17 19 22 21 18 14 14 12 13 8 20 19 19 24 24 21 14 13 14 13 13 14 14 11 12 12 10 8 6 8 10 11 10 5 7 8 8 8 9 10 11
25 27 30 30 29 25 23 22 18 17 17 21 20 20 12 7 13 12 12 18 20 21 23 22 12 12 13 13 13 13 12 10 9 9 11 7 5 8 10 12 11 8 4 7 5 6 9 9 8
25 24 26 26 28 27 23 22 20 17 15 17 21 21 22 15 8 14 14 15 20 24 26 12 10 11 12 11 12 10 10 9 8 7 9 9 7 9 8 10 11 10 7 7 6 4 6 6 7
22 22 23 25 26 26 24 22 20 19 16 16 17 16 17 19 18 14 26 24 18 21 15 13 12 11 9 8 9 8 8 8 9 9 8 8 6 7 5 6 7 8 7 8 8 5 3 1 5
18 20 20 25 27 26 23 23 20 19 20 17 14 15 13 14 14 14 18 16 13 14 13 14 12 12 11 9 7 7 7 8 10 10 7 8 6 5 5 2 4 6 4 6 7 6 4 2 3
18 20 24 21 24 26 27 24 23 20 17 16 14 11 10 9 12 12 12 9 10 11 11 13 14 11 10 9 8 7 7 10 9 9 7 4 4 3 3 3 2 2 1 5 5 5 2 2 0
11 15 15 18 18 23 24 26 26 25 21 17 14 13 11 6 6 9 8 8 10 10 12 12 11 11 9 7 6 7 6 7 9 8 8 5 3 4 5 3 2 2 0 3 2 4 4 4 3
9 13 19 19 21 19 21 22 24 26 23 21 18 14 10 9 7 8 8 9 9 10 11 12 12 10 9 8 8 10 9 7 7 9 9 5 2 3 3 2 3 3 3 1 2 1 3 3 3
9 8 15 19 20 22 20 19 23 23 24 20 19 17 11 6 8 7 9 10 10 11 11 12 14 15 11 10 10 12 11 10 8 9 10 9 6 1 1 3 4 5 1 2 1 2 8 3 3
8 8 5 8 10 8 11 18 20 21 23 21 17 19 14 7 5 5 3 6 9 11 12 13 15 15 13 13 13 13 13 12 10 9 9 10 7 5 2 1 2 3 2 1 1 7 6 6 8
2 4 4 4 6 6 7 16 18 20 20 20 18 19 17 9 6 6 4 4 7 9 11 12 14 15 15 13 13 13 14 13 11 9 10 10 8 6 2 2 4 1 2 3 3 7 8 9 7
1 4 11 9 4 3 1 7 13 10 15 17 19 18 19 15 9 9 5 4 7 9 12 14 13 12 12 14 15 15 13 13 12 11 10 8 7 5 3 1 4 1 3 5 6 8 7 6 5
4 4 1 6 7 3 12 11 13 12 7 14 16 15 15 17 13 10 8 5 3 3 3 7 9 11 12 13 14 14 13 12 10 9 11 9 7 7 4 3 1 3 8 9 9 9 8 7 5
8 5 4 8 8 3 7 5 8 9 13 14 10 10 12 12 15 11 6 2 1 5 4 5 8 7 7 9 11 9 8 9 9 13 14 16 9 9 9 5 5 7 10 9 7 7 7 4 4
11 8 3 3 11 7 11 4 4 9 10 10 13 12 8 7 8 12 12 8 5 3 8 9 11 12 8 8 10 10 7 7 10 16 16 20 13 13 12 6 8 11 11 9 8 7 6 3 1
16 10 7 5 7 4 11 8 6 6 7 6 4 12 10 4 4 6 8 7 5 4 3 6 7 7 7 8 10 11 8 4 3 7 9 9 13 10 11 9 12 12 10 8 6 6 4 2 2
23 16 13 10 9 5 4 5 7 11 5 6 6 7 8 4 3 4 3 4 3 6 8 8 8 9 10 12 13 11 9 8 7 6 4 5 12 14 12 14 15 13 10 7 5 5 4 3 3
23 21 19 20 17 14 11 11 6 12 6 2 8 7 2 3 2 5 4 5 2 3 8 8 9 12 13 12 12 12 10 9 8 10 10 10 11 15 19 16 14 11 8 6 5 3 2 2 3
27 24 23 24 25 23 15 18 9 6 7 6 13 10 3 4 4 7 3 6 6 5 5 9 11 15 13 10 7 7 7 6 5 7 7 10 13 14 15 13 11 9 8 5 4 3 3 2 4
31 28 24 24 27 27 24 23 11 13 15 12 13 8 1 7 9 6 7 5 7 7 6 7 11 13 11 8 5 5 5 6 5 6 6 7 9 10 11 10 9 10 8 8 5 6 5 4 6
36 37 31 30 26 22 21 23 21 23 16 15 16 14 6 3 6 8 11 8 7 7 8 7 9 11 10 7 3 3 3 5 6 6 5 5 5 9 9 10 11 9 8 7 6 5 5 7 10
28 28 28 25 19 22 19 20 19 21 19 18 16 15 13 7 11 11 6 9 9 8 8 9 9 9 10 8 5 6 6 4 6 4 2 1 2 7 10 12 11 11 10 8 7 7 7 10 12
19 17 18 26 25 21 17 18 21 17 16 18 23 22 21 14 17 17 11 9 10 9 7 7 7 9 9 7 5 6 9 6 6 6 5 1 3 5 10 13 12 12 12 13 13 14 15 14 16
24 20 19 23 25 19 16 15 21 22 18 16 20 23 23 22 14 16 14 17 16 12 9 9 9 6 6 5 6 5 7 7 7 7 8 4 5 5 7 12 14 15 16 17 17 18 18 17 18
31 28 22 22 23 23 17 15 16 24 23 20 18 19 16 15 9 16 19 16 14 10 10 11 11 11 8 6 5 7 7 9 9 9 12 11 9 6 5 11 15 17 21 21 21 21 22 22 21
Wind_Direction
52 53 59 63 70 73 82 93 84 97 110 75 127 128 127 184 181 170 155 161 164 143 148 157 153 140 141 140 135 134 118 110 107 105 97 89 86 80 73 68 54 70 84 78 70 69 84 93 88
51 59 58 57 71 75 79 85 78 80 103 120 122 162 161 186 162 163 175 160 158 155 149 158 152 147 144 148 138 133 122 119 118 113 107 101 94 84 74 66 61 69 75 71 66 73 92 92 90
57 64 47 49 67 65 81 75 68 63 64 116 171 172 175 236 168 163 163 158 170 160 153 147 147 148 140 145 140 137 132 126 119 107 106 107 96 87 80 71 63 68 82 78 70 73 78 84 83
62 59 63 64 55 61 66 76 79 63 47 110 151 136 172 157 210 179 179 183 175 169 151 142 133 138 141 150 139 134 130 122 116 116 120 111 97 93 80 73 75 66 80 88 77 74 77 82 86
63 61 60 61 55 55 58 64 73 66 60 120 154 164 146 146 162 190 193 185 194 166 147 146 133 149 149 154 136 134 122 132 118 115 113 99 91 88 78 68 74 80 78 90 81 77 77 73 78
65 59 58 57 54 50 54 59 70 80 74 80 109 128 153 162 169 165 174 175 185 179 153 141 143 148 147 144 142 127 124 121 104 113 112 106 90 74 80 76 64 83 95 89 87 77 78 74 77
57 58 55 57 56 53 50 56 61 72 79 73 81 105 113 112 158 172 162 176 183 172 159 146 149 149 145 144 136 132 125 121 112 111 119 109 92 85 75 78 79 83 126 116 86 59 64 67 72
50 51 47 55 60 58 57 58 59 68 71 70 70 80 85 95 157 157 159 167 167 163 133 127 146 150 145 137 132 136 123 130 113 116 119 111 107 82 79 82 82 88 89 115 108 58 74 69 70
62 54 47 55 55 62 67 68 65 64 62 66 75 70 81 83 80 121 190 133 105 110 121 131 143 147 145 143 132 139 139 142 129 122 129 106 72 79 82 84 90 95 95 91 96 79 67 66 91
69 65 53 52 57 60 71 77 73 67 70 59 63 82 89 98 96 97 105 118 129 139 142 139 140 147 151 148 146 152 156 142 143 137 139 99 98 75 64 79 84 84 111 105 98 83 77 8 132
75 71 61 48 58 64 70 71 74 69 65 72 67 71 98 124 121 121 117 116 137 138 140 144 152 154 157 155 160 160 162 147 150 149 145 148 120 62 358 338 70 69 158 138 117 95 124 60 13
84 76 57 58 66 61 70 71 68 69 65 64 66 71 81 118 168 158 168 168 161 163 161 170 172 172 176 178 188 191 167 158 162 172 166 171 117 51 10 27 84 37 359 184 108 82 126 132 142
77 87 97 79 56 59 52 62 65 64 61 63 63 61 69 102 154 191 196 199 198 199 194 200 203 202 212 228 216 217 187 174 189 194 192 175 132 62 2 343 61 32 1 248 245 143 112 58 145
81 69 90 93 76 54 50 55 62 64 59 54 60 58 50 59 93 157 199 195 208 223 222 227 226 222 218 231 232 218 198 196 189 204 192 177 171 191 1 1 24 48 84 183 241 142 119 155 154
24 17 47 81 95 71 35 61 62 64 54 45 58 57 51 59 98 101 184 194 213 220 227 236 231 222 211 210 218 208 199 201 198 196 198 184 190 205 249 319 4 43 87 114 357 161 112 124 75
81 278 238 100 89 95 46 44 52 57 61 50 44 51 54 59 114 97 94 138 177 205 221 214 214 210 211 199 203 196 196 201 207 206 203 201 195 213 240 341 360 344 107 106 132 97 100 105 103
247 264 233 158 79 99 50 26 26 53 68 59 48 40 50 68 114 109 99 106 138 175 191 198 193 192 187 188 194 193 191 203 208 208 217 217 214 235 234 281 331 253 113 138 131 120 119 115 102
222 131 101 178 150 108 75 82 51 57 46 42 42 49 44 61 100 111 111 95 90 117 167 187 188 181 181 186 197 197 198 209 217 224 236 237 238 254 234 241 166 181 157 154 136 133 121 103 86
226 160 89 158 188 190 98 72 93 41 38 24 67 61 56 52 68 84 85 77 238 272 273 225 212 217 217 219 222 221 222 229 244 238 233 238 230 235 196 215 174 166 156 151 140 142 141 130 100
225 188 234 172 192 160 121 103 113 69 51 81 83 64 45 50 69 69 60 50 17 296 266 224 235 249 243 247 247 237 239 252 268 254 238 230 232 224 194 196 177 164 157 152 142 135 139 125 148
230 217 220 246 285 144 136 142 157 110 68 45 144 45 41 11 43 78 69 56 67 101 165 181 200 194 171 135 125 132 143 122 294 244 213 243 226 213 198 175 168 169 164 155 148 123 110 123 193
222 236 231 239 248 284 201 164 170 143 86 33 200 24 58 39 330 95 113 87 94 149 148 167 172 160 149 131 122 123 121 118 86 83 174 192 199 182 169 154 167 163 163 159 151 142 149 157 212
236 229 235 242 257 263 256 243 193 145 134 311 222 247 7 72 291 278 154 180 158 157 179 162 163 150 147 139 130 131 120 99 93 90 97 117 138 139 151 149 155 166 174 178 184 177 177 263 267
238 237 245 256 260 262 267 269 190 232 236 221 215 225 239 240 220 270 199 177 193 191 176 192 169 157 155 150 141 146 153 142 120 101 108 117 128 141 153 161 172 192 211 213 209 220 214 248 274
240 244 248 257 265 273 271 276 252 272 263 262 231 241 255 248 205 238 222 185 201 204 190 190 193 176 171 168 161 160 163 163 142 134 148 152 167 178 180 183 197 204 215 235 238 251 248 247 256
241 249 257 264 270 278 270 270 269 271 264 244 250 260 231 290 203 203 219 209 192 211 209 183 184 192 187 179 216 264 210 180 174 144 144 150 191 211 210 207 221 227 235 242 230 236 252 264 263
238 250 255 261 268 277 275 254 246 246 240 233 231 226 229 208 226 240 255 226 218 201 214 213 208 220 211 219 240 281 275 208 183 172 179 163 254 247 223 224 227 228 230 225 232 237 237 251 260
240 233 239 250 263 279 279 257 227 229 226 224 235 239 242 239 202 217 235 253 231 217 216 217 210 228 235 237 250 277 284 250 188 175 177 234 335 320 231 231 227 223 224 228 235 246 250 248 250
256 241 237 250 259 264 277 288 233 221 210 212 226 249 257 254 191 213 221 225 218 214 224 216 215 214 231 215 236 248 276 258 214 195 187 217 275 320 229 228 230 235 245 256 263 266 269 271 277
246 249 246 241 252 262 258 281 274 241 234 242 233 244 259 245 260 221 233 246 237 208 225 220 216 214 214 222 214 263 262 260 231 228 223 244 243 265 248 238 245 253 261 266 267 264 262 268 277
Height
5872 5870 5868 5866 5867 5862 5862 5863 5862 5862 5863 5864 5864 5865 5865 5868 5871 5875 5875 5877 5881 5883 5886 5890 5892 5894 5896 5896 5897 5899 5900 5901 5903 5904 5904 5904 5904 5904 5903 5903 5905 5904 5903 5902 5901 5901 5900 5900 5901
5874 5872 5872 5869 5868 5867 5866 5864 5863 5863 5863 5863 5864 5866 5868 5869 5870 5872 5875 5878 5880 5883 5887 5891 5892 5895 5896 5900 5899 5901 5902 5902 5903 5905 5905 5906 5906 5906 5904 5905 5907 5907 5906 5903 5902 5902 5903 5903 5904
5878 5874 5876 5874 5871 5870 5868 5866 5865 5863 5862 5862 5864 5865 5868 5868 5869 5871 5874 5877 5880 5883 5887 5891 5894 5897 5898 5901 5903 5904 5904 5904 5905 5906 5907 5908 5908 5908 5907 5907 5907 5908 5907 5905 5904 5904 5905 5905 5905
5881 5880 5879 5876 5874 5873 5872 5869 5867 5866 5864 5861 5862 5866 5868 5869 5869 5872 5875 5878 5880 5883 5887 5890 5893 5897 5900 5902 5904 5906 5906 5907 5905 5906 5908 5909 5910 5910 5908 5907 5908 5909 5908 5907 5906 5906 5906 5906 5906
5887 5885 5882 5880 5877 5875 5874 5873 5870 5868 5867 5862 5862 5865 5867 5869 5871 5872 5875 5877 5880 5882 5887 5891 5894 5897 5900 5904 5905 5908 5908 5909 5907 5907 5910 5911 5912 5912 5910 5909 5909 5909 5909 5909 5908 5908 5907 5907 5907
5891 5890 5885 5882 5879 5877 5877 5876 5874 5872 5871 5867 5865 5865 5867 5869 5872 5872 5873 5876 5881 5882 5887 5892 5896 5900 5903 5905 5906 5909 5910 5911 5910 5910 5911 5912 5913 5913 5912 5910 5909 5910 5910 5910 5909 5909 5909 5909 5909
5896 5894 5889 5886 5883 5881 5880 5878 5878 5877 5875 5872 5870 5867 5868 5870 5873 5874 5876 5879 5882 5885 5889 5895 5899 5902 5904 5905 5906 5909 5911 5912 5911 5911 5912 5912 5913 5912 5913 5912 5911 5911 5911 5911 5910 5910 5910 5910 5909
5899 5898 5895 5891 5887 5885 5883 5882 5882 5881 5880 5876 5873 5871 5870 5872 5873 5875 5879 5882 5884 5888 5892 5898 5902 5904 5905 5906 5907 5909 5910 5911 5911 5913 5913 5913 5915 5914 5914 5914 5913 5913 5913 5912 5912 5911 5912 5910 5910
5902 5901 5899 5896 5892 5888 5886 5885 5886 5884 5882 5880 5877 5877 5876 5876 5877 5878 5880 5883 5888 5892 5897 5901 5904 5905 5907 5907 5908 5910 5911 5911 5911 5913 5914 5914 5914 5914 5914 5914 5915 5915 5916 5914 5913 5913 5912 5912 5911
5904 5904 5902 5900 5897 5894 5892 5888 5889 5887 5884 5883 5882 5880 5881 5882 5884 5886 5887 5890 5894 5897 5900 5901 5905 5906 5907 5908 5909 5911 5912 5912 5912 5912 5915 5915 5916 5915 5915 5916 5915 5915 5916 5916 5915 5914 5914 5913 5913
5907 5906 5907 5905 5903 5900 5897 5894 5891 5889 5888 5886 5885 5885 5885 5886 5888 5890 5893 5896 5897 5899 5902 5905 5906 5907 5908 5909 5911 5912 5913 5912 5913 5913 5914 5916 5915 5915 5915 5915 5916 5916 5917 5916 5917 5916 5915 5914 5913
5909 5907 5909 5908 5907 5906 5902 5899 5895 5892 5892 5890 5888 5887 5886 5888 5890 5892 5896 5897 5899 5901 5903 5906 5907 5908 5909 5910 5911 5913 5913 5913 5913 5914 5914 5916 5916 5915 5915 5914 5915 5916 5916 5916 5916 5916 5914 5914 5914
5909 5908 5910 5911 5910 5909 5908 5904 5901 5898 5896 5892 5890 5889 5890 5890 5891 5893 5895 5897 5899 5901 5903 5905 5907 5908 5908 5909 5910 5912 5912 5912 5914 5914 5915 5915 5915 5916 5915 5915 5914 5915 5916 5916 5916 5916 5915 5914 5914
5910 5910 5914 5913 5912 5912 5911 5909 5905 5902 5901 5898 5894 5891 5892 5892 5891 5892 5894 5895 5896 5899 5902 5904 5905 5905 5907 5907 5909 5911 5911 5912 5913 5915 5914 5914 5915 5915 5916 5915 5915 5916 5916 5916 5916 5915 5914 5914 5914
5910 5910 5911 5913 5914 5913 5915 5913 5909 5905 5902 5901 5899 5895 5893 5893 5893 5893 5893 5895 5896 5897 5900 5902 5903 5904 5905 5905 5906 5908 5910 5911 5912 5913 5914 5915 5916 5916 5916 5916 5916 5916 5916 5915 5915 5914 5914 5915 5914
5912 5912 5911 5913 5913 5914 5915 5912 5909 5908 5905 5903 5903 5899 5895 5893 5893 5894 5895 5895 5897 5898 5899 5900 5902 5902 5902 5904 5905 5907 5908 5910 5911 5911 5913 5914 5915 5915 5915 5915 5915 5915 5915 5915 5915 5915 5914 5915 5916
5914 5912 5910 5912 5912 5912 5914 5914 5912 5910 5908 5906 5904 5901 5898 5894 5894 5895 5896 5897 5898 5899 5900 5901 5901 5901 5902 5903 5904 5906 5907 5908 5909 5910 5912 5914 5914 5915 5915 5914 5914 5914 5914 5915 5915 5915 5916 5916 5917
5914 5912 5911 5911 5913 5913 5915 5915 5914 5912 5910 5908 5905 5903 5902 5897 5896 5897 5897 5898 5900 5900 5901 5901 5901 5902 5902 5902 5904 5905 5906 5907 5908 5910 5911 5912 5913 5914 5915 5914 5913 5914 5915 5916 5915 5916 5917 5917 5917
5912 5911 5910 5910 5912 5910 5916 5913 5914 5913 5912 5910 5906 5905 5904 5903 5898 5898 5898 5898 5899 5900 5901 5901 5902 5902 5903 5903 5904 5904 5906 5907 5907 5909 5909 5910 5911 5912 5913 5913 5913 5914 5915 5916 5916 5916 5917 5917 5918
5910 5911 5911 5910 5909 5911 5911 5912 5913 5914 5913 5912 5909 5906 5905 5903 5903 5899 5897 5897 5897 5899 5901 5902 5903 5903 5902 5902 5902 5904 5905 5905 5904 5904 5905 5906 5908 5909 5910 5911 5913 5915 5916 5916 5916 5917 5917 5918 5918
5908 5909 5910 5911 5909 5908 5909 5910 5912 5914 5913 5912 5911 5909 5906 5904 5902 5900 5899 5899 5899 5900 5902 5903 5905 5906 5904 5903 5903 5903 5904 5904 5903 5900 5902 5904 5905 5907 5909 5911 5913 5916 5916 5917 5917 5917 5918 5919 5919
5906 5908 5908 5908 5909 5910 5909 5911 5909 5910 5913 5913 5912 5910 5907 5905 5904 5901 5900 5901 5902 5902 5903 5905 5906 5908 5907 5905 5904 5904 5905 5905 5905 5902 5902 5902 5903 5905 5909 5910 5913 5915 5916 5917 5917 5917 5918 5919 5918
5903 5904 5907 5907 5907 5907 5909 5909 5910 5910 5911 5912 5911 5910 5908 5906 5905 5904 5901 5902 5903 5903 5903 5905 5906 5907 5909 5908 5907 5906 5906 5905 5905 5904 5903 5902 5905 5905 5908 5910 5913 5914 5915 5917 5916 5916 5917 5918 5918
5898 5901 5903 5903 5903 5903 5905 5905 5909 5908 5908 5909 5909 5908 5907 5905 5904 5903 5903 5902 5903 5904 5904 5905 5906 5907 5909 5909 5909 5908 5907 5906 5906 5905 5905 5906 5906 5907 5909 5910 5912 5914 5915 5916 5916 5916 5916 5917 5916
5895 5896 5899 5900 5900 5900 5901 5901 5905 5904 5905 5906 5908 5907 5906 5904 5903 5903 5903 5903 5902 5903 5904 5906 5907 5907 5908 5909 5910 5909 5908 5907 5907 5906 5907 5907 5908 5909 5910 5910 5911 5912 5913 5914 5914 5914 5915 5915 5915
5891 5892 5895 5895 5896 5896 5897 5897 5900 5900 5900 5902 5904 5906 5904 5903 5902 5901 5902 5902 5902 5902 5903 5904 5906 5907 5908 5909 5910 5909 5908 5907 5906 5907 5907 5907 5908 5909 5909 5910 5911 5912 5911 5913 5912 5912 5912 5913 5912
5888 5888 5891 5890 5890 5891 5893 5892 5894 5895 5897 5899 5901 5901 5901 5901 5902 5901 5902 5901 5901 5901 5903 5904 5905 5907 5907 5909 5908 5908 5907 5906 5905 5905 5906 5907 5907 5908 5909 5909 5909 5910 5910 5910 5910 5910 5910 5910 5910
5883 5885 5887 5886 5887 5888 5889 5887 5889 5891 5894 5897 5897 5897 5898 5897 5897 5898 5900 5899 5900 5901 5902 5903 5903 5904 5905 5906 5907 5907 5907 5906 5905 5905 5905 5907 5907 5905 5906 5907 5908 5908 5907 5907 5907 5906 5906 5906 5905
5878 5881 5882 5884 5884 5884 5885 5885 5887 5888 5891 5892 5893 5894 5895 5896 5896 5896 5896 5894 5895 5898 5899 5900 5901 5901 5902 5902 5903 5904 5905 5905 5905 5904 5904 5906 5907 5905 5904 5905 5906 5906 5905 5905 5905 5904 5903 5903 5902
5873 5875 5877 5878 5880 5881 5882 5883 5884 5885 5887 5889 5890 5891 5893 5894 5894 5895 5896 5897 5897 5897 5898 5898 5899 5899 5899 5900 5900 5901 5902 5904 5904 5905 5905 5904 5905 5905 5904 5903 5903 5903 5903 5902 5900 5899 5899 5899 5898